Weather History for Spokane, WA

Change the Weather History Date:

Sunday, October 16, 2011

  Actual Average Record
Temperature  
Mean Temperature 48 °F 48 °F  
Max Temperature 57 °F 58 °F 79 °F (1927)
Min Temperature 38 °F 37 °F 18 °F (1999)
Degree Days  
Heating Degree Days 17 18  
Month to date heating degree days 217 230  
Since 1 July heating degree days 364 478  
Cooling Degree Days 0 0  
Month to date cooling degree days 0 0  
Year to date cooling degree days 426 449  
Moisture  
Dew Point 33 °F    
Average Humidity 60    
Maximum Humidity 85    
Minimum Humidity 35    
Precipitation  
Precipitation 0.00 in 0.04 in 0.87 in (1947)
Month to date precipitation 0.55 0.45  
Year to date precipitation 12.48 11.23  
Snow  
Snow 0.00 in 0.00 in T in (1993)
Month to date snowfall 0.0 0.0  
Since 1 July snowfall 0.0 0.0  
Since 1 September snowfall 0.0 0.0  
Snow Depth 0.00 in    
Sea Level Pressure  
Sea Level Pressure 30.12 in    
Wind  
Wind Speed 4 mph (North)    
Max Wind Speed 10 mph    
Max Gust Speed 14 mph    
Visibility 10 miles    
Events      
T = Trace of Precipitation, MM = Missing Value Source: NWS Daily Summary

Daily Weather History Graph

Daily Weather History Graph

Search for Another Location

Airport:

Trip Planner

Search our weather history database for the weather conditions in past years. The results will help you decide how hot, cold, wet, or windy it might be!

Date:

Astronomy

Oct. 16, 2011 Rise Set
Actual Time 7:10 AM PDT 6:00 PM PDT
Civil Twilight 6:39 AM PDT 6:31 PM PDT
Nautical Twilight 6:03 AM PDT 7:07 PM PDT
Astronomical Twilight 5:27 AM PDT 7:42 PM PDT
Moon 8:31 PM PDT (10/16) 11:50 AM PDT (10/16)
Length of Visible Light 11h 52m
Length of Day
10h 50m
Waning Gibbous, 81% of the Moon is Illuminated
Oct 16
Waning Gibbous
Oct 19
Last Quarter
Oct 26
New
Nov 2
First Quarter
Nov 10
Full

Hourly Weather History & Observations

Time (PDT) Temp. Windchill Dew Point Humidity Pressure Visibility Wind Dir Wind Speed Gust Speed Precip Events Conditions
12:53 AM 41.0 °F 36.4 °F 36.0 °F 82% 30.07 in 10.0 mi NNE 6.9 mph - N/A   Overcast
1:53 AM 42.1 °F 37.7 °F 36.0 °F 79% 30.05 in 10.0 mi ENE 6.9 mph - N/A   Overcast
2:53 AM 39.9 °F 36.7 °F 35.1 °F 83% 30.06 in 10.0 mi North 4.6 mph - N/A   Overcast
3:53 AM 41.0 °F 38.0 °F 36.0 °F 82% 30.05 in 10.0 mi NNE 4.6 mph - N/A   Overcast
4:53 AM 41.0 °F 38.0 °F 35.1 °F 79% 30.05 in 10.0 mi NE 4.6 mph - N/A   Overcast
5:53 AM 39.9 °F 37.8 °F 35.1 °F 83% 30.05 in 10.0 mi NNE 3.5 mph - N/A   Overcast
6:53 AM 37.9 °F - 33.1 °F 83% 30.06 in 10.0 mi Calm Calm - N/A   Mostly Cloudy
7:53 AM 37.9 °F 35.5 °F 34.0 °F 86% 30.07 in 10.0 mi NNE 3.5 mph - N/A   Mostly Cloudy
8:53 AM 41.0 °F 39.0 °F 34.0 °F 76% 30.09 in 10.0 mi North 3.5 mph - N/A   Mostly Cloudy
9:53 AM 45.0 °F 43.5 °F 35.1 °F 68% 30.10 in 10.0 mi NNE 3.5 mph - N/A   Mostly Cloudy
10:53 AM 48.0 °F - 35.1 °F 61% 30.10 in 10.0 mi NE 3.5 mph - N/A   Mostly Cloudy
11:53 AM 51.1 °F - 35.1 °F 54% 30.10 in 10.0 mi Calm Calm - N/A   Mostly Cloudy
12:53 PM 53.1 °F - 34.0 °F 48% 30.11 in 10.0 mi Calm Calm - N/A   Mostly Cloudy
1:53 PM 54.0 °F - 30.9 °F 41% 30.11 in 10.0 mi Calm Calm - N/A   Mostly Cloudy
2:53 PM 55.9 °F - 30.9 °F 39% 30.11 in 10.0 mi Variable 3.5 mph - N/A   Mostly Cloudy
3:53 PM 55.9 °F - 28.0 °F 34% 30.11 in 10.0 mi WNW 5.8 mph - N/A   Scattered Clouds
4:53 PM 55.4 °F - 28.4 °F 36% 30.11 in 10.0 mi WNW 9.2 mph - N/A   Scattered Clouds
5:53 PM 53.1 °F - 30.0 °F 41% 30.14 in 10.0 mi Calm Calm - N/A   Partly Cloudy
6:53 PM 48.9 °F - 30.9 °F 50% 30.18 in 10.0 mi WSW 4.6 mph - N/A   Partly Cloudy
7:53 PM 45.0 °F 41.8 °F 32.0 °F 60% 30.21 in 10.0 mi SW 5.8 mph - N/A   Clear
8:53 PM 44.1 °F 40.1 °F 34.0 °F 68% 30.23 in 10.0 mi SW 6.9 mph - N/A   Clear
9:53 PM 42.1 °F 37.7 °F 34.0 °F 73% 30.25 in 10.0 mi SW 6.9 mph - N/A   Clear
10:53 PM 43.0 °F 38.2 °F 35.1 °F 74% 30.26 in 10.0 mi SW 8.1 mph - N/A   Clear
11:53 PM 39.9 °F 36.7 °F 34.0 °F 79% 30.28 in 10.0 mi South 4.6 mph - N/A   Clear